290  
NZUS93 KARX 201810  
HRRWXR  
 
CURRENT HOURLY OBSERVATIONS ACROSS  
MUCH OF THE UPPER MISSISSIPPI VALLEY  
NATIONAL WEATHER SERVICE LA CROSSE WI  
100 PM CDT SAT APR 20 2019  
 
   
..SOUTHEAST MINNESOTA
 
 
 
CITY SKY/WX TMP DP RH WIND PRES REMARKS  
ROCHESTER FAIR 66 36 32 SW12 29.84F  
ROCHESTER/MAYO FAIR 65 35 32 S10G16 29.84F  
WINONA FAIR 63 32 31 SW7 29.85F  
AUSTIN FAIR 70 27 19 S12G20 29.84F  
ALBERT LEA FAIR 66 36 32 S10G16 29.82F  
DODGE CENTER FAIR 64 39 39 SW12G18 29.83F  
PRESTON FAIR 65 34 31 S9 29.85F  
OWATONNA NOT AVBL  
FARIBAULT NOT AVBL  

 
   
..ELSEWHERE IN MINNESOTA
 
 
 
CITY SKY/WX TMP DP RH WIND PRES REMARKS  
MINNEAPOLIS FAIR 69 35 28 SW10G23 29.78F  
INTNL FALLS PTSUNNY 54 46 74 CALM 29.69S  
DULUTH FAIR 68 37 32 S17 29.70F  
RED WING FAIR 68 30 24 S8 29.80F  
REDWOOD FALLS SUNNY 71 47 42 S16 29.73F  
MANKATO FAIR 69 41 36 S16 29.78F  
WORTHINGTON MOSUNNY 72 44 36 S16 29.77F  
FAIRMONT SUNNY 71 41 33 SW20 29.79F  

 
   
..SOUTHWEST WISCONSIN
 
 
 
CITY SKY/WX TMP DP RH WIND PRES REMARKS  
LA CROSSE FAIR 66 29 24 S8 29.86F  
PRAIRIE DU CHI FAIR 63 24 23 CALM 29.88F  
BOSCOBEL FAIR 66 24 20 VRB7 29.89F  
LONE ROCK FAIR 63 23 21 SW6 29.88F  
PLATTEVILLE FAIR 62 25 24 W3 29.90F  
FORT MC COY FAIR 64 26 23 CALM 29.87F  
MAUSTON-NEW LI FAIR 63 24 22 CALM 29.87F  
VIROQUA FAIR 63 29 27 SW6 29.88F  
WIS DELLS FAIR 62 16 16 S5 29.88F  

 
   
..ELSEWHERE IN WISCONSIN
 
 
 
CITY SKY/WX TMP DP RH WIND PRES REMARKS  
MILWAUKEE FAIR 58 18 21 N16G25 29.87F  
MADISON FAIR 61 22 22 NE8 29.88F  
GREEN BAY FAIR 58 26 29 VRB5 29.88F  
EAU CLAIRE FAIR 66 31 27 S14G20 29.82F  
BLACK RVR FLS FAIR 66 21 18 S6 29.86F  
MEDFORD FAIR 57 33 40 SW9 29.85F  
WAUSAU NOT AVBL  
WIS RAPIDS FAIR 63 17 17 SW8 29.88F  
MARSHFIELD NOT AVBL  
RICE LAKE FAIR 65 33 30 S10G20 29.81F  

 
   
..NORTHEAST IOWA
 
 
 
CITY SKY/WX TMP DP RH WIND PRES REMARKS  
WATERLOO FAIR 68 34 28 SW12G17 29.87F  
DUBUQUE FAIR 63 23 21 VRB5 29.90F  
DECORAH FAIR 64 30 27 VRB7 29.86F  
MASON CITY SUNNY 70 38 31 SW16 29.85F  
CHARLES CITY FAIR 66 34 30 SW7G15 29.86F  
OELWEIN FAIR 64 30 27 VRB7 29.88F  

 
   
..ELSEWHERE IN IOWA
 
 
 
CITY SKY/WX TMP DP RH WIND PRES REMARKS  
DES MOINES SUNNY 69 34 27 S12G18 29.88F  
IOWA CITY FAIR 66 28 24 MISG 29.92F  
FORT DODGE SUNNY 71 37 28 S15 29.84F  
MARSHALLTOWN SUNNY 67 37 33 VRB5 29.87F  
CEDAR RAPIDS FAIR 65 30 27 W8 29.89F  

 
   
..NORTHERN ILLINOIS
 
 
 
CITY SKY/WX TMP DP RH WIND PRES REMARKS  
CHICAGO-OHARE FAIR 61 12 14 N22 29.83F  
CHICAGO-MIDWAY FAIR 59 9 13 N25G37 29.82F  
MOLINE FAIR 66 23 19 NE7 29.89F  
ROCKFORD FAIR 64 19 17 N12G21 29.88F  
PEORIA FAIR 63 25 23 N12G24 29.88F  

 
 
NOTE: "FAIR" INDICATES FEW OR NO CLOUDS BELOW 12,000 FEET WITH NO  
SIGNIFICANT WEATHER AND/OR OBSTRUCTIONS TO VISIBILITY. WIND  
SPEEDS ARE IN MILES-PER-HOUR.  
 
 
CLICK HERE TO GO TO PREVIOUS BULLETINS.

The Nexlab WI Page
The Nexlab IA Page
The Nexlab MN Page Main Text Page